Long Beach, CA

5:03 AM PST on November 19, 2017 (GMT -0800)
Long Beach

Weather History for KLGB - June, 2014

Change the Weather History Date:

Monday, June 16, 2014

  Actual Average Record
Temperature  
Mean Temperature 70 °F 69 °F  
Max Temperature 77 °F 77 °F 109 °F (1981)
Min Temperature 63 °F 61 °F 54 °F (1995)
Degree Days  
Heating Degree Days 0 0  
Month to date heating degree days 0 3  
Since 1 June heating degree days 0 3  
Since 1 July heating degree days 716 1216  
Cooling Degree Days 5 4  
Month to date cooling degree days 72 48  
Year to date cooling degree days 341 151  
Since 1 June cooling degree days 72 48  
Growing Degree Days 20 (Base 50)    
Moisture  
Dew Point 53 °F    
Average Humidity 58    
Maximum Humidity 72    
Minimum Humidity 43    
Precipitation  
Precipitation 0.00 in 0.01 in 0.45 in (1995)
Month to date precipitation 0.00 0.06  
Year to date precipitation 3.19 8.43  
Since 1 July precipitation 4.50  
Sea Level Pressure  
Sea Level Pressure 29.89 in    
Wind  
Wind Speed 6 mph (WSW)    
Max Wind Speed 15 mph    
Max Gust Speed 24 mph    
Visibility 10 miles    
Events      
T = Trace of Precipitation, MM = Missing Value Source: NWS Daily Summary

Daily Weather History Graph

Daily Weather History Graph

Search for Another Location

Airport or City:

Trip Planner

Search our weather history database for the weather conditions in past years. The results will help you decide how hot, cold, wet, or windy it might be!

Date:

Astronomy

Jun. 16, 2014 Rise Set
Actual Time 5:41 AM PDT 8:05 PM PDT
Civil Twilight 5:12 AM PDT 8:34 PM PDT
Nautical Twilight 4:36 AM PDT 9:10 PM PDT
Astronomical Twilight 3:57 AM PDT 9:49 PM PDT
Moon 11:11 PM PDT (6/16) 9:41 AM PDT (6/16)
Length of Visible Light 15h 22m
Length of Day
14h 23m
Waning Gibbous, 82% of the Moon is Illuminated
Jun 16
Waning Gibbous
Jun 19
Last Quarter
Jun 27
New
Jul 5
First Quarter
Jul 12
Full

Hourly Weather History & Observations

Time (PDT) Temp. Dew Point Humidity Pressure Visibility Wind Dir Wind Speed Gust Speed Precip Events Conditions
12:53 AM 63.0 °F 53.1 °F 70% 29.88 in 10.0 mi South 3.5 mph - N/A   Overcast
1:53 AM 63.0 °F 53.1 °F 70% 29.87 in 10.0 mi West 4.6 mph - N/A   Overcast
2:53 AM 64.0 °F 53.1 °F 67% 29.87 in 10.0 mi Calm Calm - N/A   Overcast
3:53 AM 64.0 °F 53.1 °F 67% 29.87 in 10.0 mi WSW 4.6 mph - N/A   Overcast
4:53 AM 64.0 °F 52.0 °F 65% 29.87 in 10.0 mi Calm Calm - N/A   Overcast
5:53 AM 64.0 °F 52.0 °F 65% 29.88 in 10.0 mi Variable 3.5 mph - N/A   Overcast
6:53 AM 64.9 °F 52.0 °F 63% 29.90 in 10.0 mi ESE 4.6 mph - N/A   Overcast
7:41 AM 66.2 °F 51.8 °F 60% 29.91 in 10.0 mi East 5.8 mph - N/A   Mostly Cloudy
7:53 AM 66.9 °F 52.0 °F 59% 29.91 in 10.0 mi Variable 5.8 mph - N/A   Mostly Cloudy
8:53 AM 66.9 °F 53.1 °F 61% 29.92 in 10.0 mi Variable 5.8 mph - N/A   Overcast
9:37 AM 68.0 °F 53.6 °F 60% 29.93 in 10.0 mi Calm Calm - N/A   Overcast
9:53 AM 68.0 °F 54.0 °F 61% 29.93 in 10.0 mi SSE 3.5 mph - N/A   Mostly Cloudy
10:53 AM 71.1 °F 54.0 °F 55% 29.92 in 10.0 mi Variable 4.6 mph - N/A   Scattered Clouds
11:53 AM 71.1 °F 54.0 °F 55% 29.92 in 10.0 mi Variable 6.9 mph - N/A   Clear
12:53 PM 73.0 °F 54.0 °F 51% 29.91 in 10.0 mi South 8.1 mph - N/A   Clear
1:53 PM 75.0 °F 53.1 °F 46% 29.90 in 10.0 mi SSW 8.1 mph - N/A   Clear
2:53 PM 75.9 °F 52.0 °F 43% 29.89 in 10.0 mi SSW 9.2 mph - N/A   Clear
3:53 PM 75.0 °F 51.1 °F 43% 29.87 in 10.0 mi South 9.2 mph - N/A   Clear
4:53 PM 75.0 °F 55.0 °F 50% 29.86 in 10.0 mi NW 11.5 mph - N/A   Clear
5:53 PM 71.6 °F 53.6 °F 53% 29.86 in 10.0 mi NW 13.8 mph - N/A   Clear
6:53 PM 69.1 °F 54.0 °F 58% 29.87 in 10.0 mi WNW 10.4 mph - N/A   Clear
7:53 PM 66.0 °F 53.1 °F 63% 29.88 in 10.0 mi WNW 10.4 mph - N/A   Clear
8:53 PM 64.0 °F 52.0 °F 65% 29.89 in 10.0 mi NW 9.2 mph - N/A   Clear
9:53 PM 63.0 °F 53.1 °F 70% 29.90 in 10.0 mi WNW 5.8 mph - N/A   Clear
10:53 PM 64.0 °F 53.1 °F 67% 29.91 in 10.0 mi NW 4.6 mph - N/A   Clear
11:53 PM 63.0 °F 53.1 °F 70% 29.90 in 10.0 mi North 3.5 mph - N/A   Clear